Location: Namasale
(1.5000°N, 32.6167°E)
Time: 13:57:45
(UTC+00:00)

deb Explorer IX - Pass Details

Date: 20 April 2021
Orbit: 541 x 1098 km, 38.8° (Epoch: 05 May)

Event Time Altitude Azimuth Distance (km) Brightness Sun altitude
Exits shadow 02:26:38 14° 331° (NNW) 1,564 ? -19.7°
Drops below altitude 10° 02:28:12 10° 354° (N) 1,786 ? -19.3°
Sets 02:31:22 0° 20° (NNE) 2,695 ? -18.6°
